Airfield :
LOGIN :

Register | Disclaimer

   EN    FR    IT 

 










Legend :    VFR   Marginal VFR   IFR   Intensive IFR   Very Intensive IFR
Visi :
Ceiling :
>= 8 km
>= 3000ft
5 to 8 km
1000 to 3000 ft
1500m to 5 km
500 to 1000 ft
800 to 1500m
200 to 500 ft
< 800m
< 200 ft
Symbols :   Thunderstorms  Fog  Heavy snow  Heavy precipitations  Wind > 20 kt
SIGMETs :     Misc.  Thunderstorms  Icing  Turbulence  Mountain Waves  Volcanic Ashes






- Airport Elevation : 2220 ft


LOXZ - Zeltweg AB

CURRENT METAR :
  • 251750Z 28012KT 15KM -SHRA FEW040SC BKN050SC 10/06 Q1027

EXPIRED METARs :
  • 251650Z 26010KT 15KM -SHRA FEW050CU BKN060SC 12/05 Q1026
  • 251550Z 27021G31KT 15KM -SHRA FEW050CU BKN060SC 13/04 Q1025

TAF TAF LOXZ
Valid from the 25 at 12:00 until the 25 at 21:00 UTC


251115Z 2512/2521 07012KT 9999 FEW040 BKN050
TEMPO 2512/2521 -SHRA
TEMPO 2512/2517 29015G25KT 8000 SHRA FEW015 BKN030 FEW040TCU



MET'MAP, your aeronautical weather chart ! - Copyright ORBIFLY December 2007 - Disclaimer

ORBIFLY MET'MAP TEAM :

Programming & Development : Alexandra Zaïnal
Concept & original design : Baudouin d'Aumeries
Assistance for programming : Marc-Olivier Méhu
Technical & hardware support : Manuel Goepfert

Contact : metmap@orbifly.com




SOURCES & CREDITS :

   NOAA